FLYING LAPTOP

Last updated on Sat Feb 08 2025 00:03:26 GMT+0000 (Coordinated Universal Time)

1 42831U 17042G 25038.77232249 .00004727 00000+0 40733-3 0 9995 2 42831 97.3940 212.6152 0012535 10.6534 349.4952 14.97712501412365
UTC large
Height (km)
Speed (km/s)
/
Latitude / Longitude
Inclination (degrees)
Orbital Period (minutes)
Azimuth
Elevation
Range (km)
Doppler Factor

Next 0 passes for location: London (51.5072 / 0.1276)

Sorry there are no passes over London.